Weather History for Grand Forks, ND

Change the Weather History Date:

Tuesday, December 10, 2013

  Actual Average Record
Temperature  
Mean Temperature -7 °F 13 °F  
Max Temperature 3 °F 22 °F 47 °F (1974)
Min Temperature -18 °F 4 °F -28 °F (1977)
Degree Days  
Heating Degree Days 72 52  
Month to date heating degree days 627 500  
Since 1 July heating degree days 2738 2699  
Cooling Degree Days 0 0  
Month to date cooling degree days 0 0  
Year to date cooling degree days 487 379  
Moisture  
Dew Point -13 °F    
Average Humidity 78    
Maximum Humidity 87    
Minimum Humidity 69    
Precipitation  
Precipitation 0.01 in 0.02 in 0.18 in (1948)
Month to date precipitation 0.44 0.20  
Year to date precipitation 19.27 20.40  
Snow  
Snow 0.10 in 0.30 in 2.20 in (1956)
Month to date snowfall 11.2 3.3  
Since 1 July snowfall 12.8 12.5  
Snow Depth 6.00 in    
Sea Level Pressure  
Sea Level Pressure 30.07 in    
Wind  
Wind Speed 10 mph (WNW)    
Max Wind Speed 17 mph    
Max Gust Speed 20 mph    
Visibility 8 miles    
Events Snow    
T = Trace of Precipitation, MM = Missing Value Source: NWS Daily Summary

Daily Weather History Graph

Daily Weather History Graph

Search for Another Location

Airport:

Trip Planner

Search our weather history database for the weather conditions in past years. The results will help you decide how hot, cold, wet, or windy it might be!

Date:

Astronomy

Dec. 10, 2013 Rise Set
Actual Time 8:07 AM CST 4:35 PM CST
Civil Twilight 7:31 AM CST 5:11 PM CST
Nautical Twilight 6:52 AM CST 5:51 PM CST
Astronomical Twilight 6:14 AM CST 6:28 PM CST
Moon 1:01 PM CST (12/10) 1:01 AM CST (12/10)
Length of Visible Light 9h 40m
Length of Day
8h 28m
Waxing Gibbous, 62% of the Moon is Illuminated
Dec 10
Waxing Gibbous
Dec 17
Full
Dec 25
Last Quarter
Jan 1
New
Jan 7
First Quarter

Hourly Weather History & Observations

Time (CST) Temp. Windchill Dew Point Humidity Pressure Visibility Wind Dir Wind Speed Gust Speed Precip Events Conditions
12:53 AM -14.1 °F -28.3 °F -18.0 °F 82% 29.90 in 10.0 mi WNW 5.8 mph - N/A   Clear
1:53 AM -13.0 °F -31.3 °F -17.0 °F 82% 29.92 in 10.0 mi WNW 9.2 mph - N/A   Clear
2:53 AM -9.9 °F -28.6 °F -15.0 °F 78% 29.94 in 10.0 mi West 10.4 mph - N/A   Clear
3:53 AM -9.9 °F -29.6 °F -16.1 °F 74% 29.96 in 10.0 mi West 11.5 mph - N/A   Clear
4:53 AM -11.9 °F -25.7 °F -18.0 °F 74% 29.97 in 10.0 mi West 5.8 mph - N/A   Clear
5:53 AM -11.9 °F -27.3 °F -17.0 °F 78% 29.95 in 10.0 mi WSW 6.9 mph - N/A   Clear
6:53 AM -13.0 °F -28.6 °F -18.0 °F 78% 29.94 in 10.0 mi SW 6.9 mph - N/A   Clear
7:53 AM -11.0 °F -27.6 °F -17.0 °F 75% 29.96 in 10.0 mi WSW 8.1 mph - N/A   Mostly Cloudy
8:53 AM -13.0 °F -32.4 °F -18.9 °F 75% 29.97 in 10.0 mi WSW 10.4 mph - N/A   Partly Cloudy
9:53 AM -8.0 °F -25.0 °F -13.0 °F 79% 30.00 in 10.0 mi WSW 9.2 mph - N/A   Mostly Cloudy
10:53 AM -2.9 °F -19.8 °F -9.9 °F 72% 30.00 in 7.0 mi West 10.4 mph - N/A   Overcast
11:53 AM -0.0 °F -16.3 °F -7.1 °F 72% 30.01 in 7.0 mi West 10.4 mph - N/A   Overcast
12:06 PM 1.4 °F -15.3 °F -5.8 °F 72% 29.93 in 1.8 mi West 11.5 mph - 0.00 in Snow Light Snow
12:20 PM 1.4 °F -16.1 °F -5.8 °F 72% 29.93 in 1.8 mi WNW 12.7 mph - 0.00 in Snow Light Snow
12:30 PM 1.4 °F -15.3 °F -5.8 °F 72% 29.93 in 2.0 mi WNW 11.5 mph - 0.00 in Snow Light Snow
12:51 PM 1.4 °F -13.5 °F -4.0 °F 78% 29.94 in 1.2 mi NW 9.2 mph - 0.00 in Snow Light Snow
12:53 PM 3.0 °F -12.5 °F -4.0 °F 73% 30.03 in 1.0 mi WNW 10.4 mph - 0.00 in Snow Light Snow
1:32 PM 1.4 °F -16.1 °F -5.8 °F 72% 29.95 in 5.0 mi NNW 12.7 mph - 0.00 in   Scattered Clouds
1:53 PM 1.9 °F -15.5 °F -6.0 °F 69% 30.04 in 10.0 mi NNW 12.7 mph - 0.00 in   Partly Cloudy
2:53 PM 1.0 °F -16.6 °F -7.1 °F 69% 30.06 in 10.0 mi NNW 12.7 mph - 0.01 in   Scattered Clouds
3:53 PM -2.0 °F -18.7 °F -9.0 °F 72% 30.12 in 9.0 mi NNW 10.4 mph - N/A   Partly Cloudy
4:53 PM -7.1 °F -25.0 °F -14.1 °F 72% 30.18 in 10.0 mi NNW 10.4 mph - N/A   Partly Cloudy
5:53 PM -11.9 °F -28.7 °F -17.0 °F 78% 30.22 in 10.0 mi NW 8.1 mph - N/A   Partly Cloudy
6:53 PM -9.9 °F -29.6 °F -16.1 °F 74% 30.25 in 10.0 mi WNW 11.5 mph - N/A   Clear
7:53 PM -9.9 °F -29.6 °F -16.1 °F 74% 30.29 in 10.0 mi NW 11.5 mph - N/A   Clear
8:53 PM -9.9 °F -29.6 °F -17.0 °F 71% 30.33 in 10.0 mi NW 11.5 mph - N/A   Clear
9:53 PM -11.9 °F -29.9 °F -18.0 °F 74% 30.37 in 10.0 mi WNW 9.2 mph - N/A   Clear
10:53 PM -15.0 °F -33.7 °F -20.9 °F 75% 30.39 in 10.0 mi West 9.2 mph - N/A   Partly Cloudy
11:53 PM -17.0 °F -36.1 °F -22.0 °F 78% 30.41 in 10.0 mi West 9.2 mph - N/A   Partly Cloudy